User: anonymous   Login
Location: Aiyekoto
(8.4333°N, 4.3667°E)
Time: 03:01:02
(UTC+00:00)
Language:

Centaur D-1A AC-31 - Orbit

View from above orbital plane
View from above orbital plane
View from above satellite
View from above satellite

Ground track
Ground track

The orbit data is extracted from the following two-line orbital elements,

1  6797U 73058B   20221.15822298 -.00000072 +00000-0 -37693-4 0  9999
2  6797 027.2920 180.2359 7184347 198.2690 108.5593 02.21635789379902
Epoch (UTC): 08 August 2020 03:47:50
Eccentricity: 0.7184347
inclination: 27.2920°
perigee height: 618 km
apogee height: 36323 km
right ascension of ascending node: 180.2359°
argument of perigee: 198.2690°
revolutions per day: 2.21635789
mean anomaly at epoch: 108.5593°
orbit number at epoch: 37990

The dashed part of the orbit path shows where the satellite is in the earth's shadow,  

DLR